Regional Weather Roundup
Issued by NWS

Home | Current Version | Previous Version | Graphics & Text | Print | Product List | Glossary On
Versions: 1 2 3 4 5 6 7 8 9 10 11 12 13 14 15 16 17 18 19 20 21 22 23 24 25 26 27 28 29 30 31 32 33 34 35 36 37 38 39 40 41 42 43 44 45 46 47 48 49 50
000
ASUS43 KIND 200309
RWRIN

WEATHER ROUNDUP FOR INDIANA
NATIONAL WEATHER SERVICE INDIANAPOLIS IN
1100 PM EDT SUN OCT 19 2014

NOTE: "FAIR" INDICATES FEW OR NO CLOUDS BELOW 12,000 FEET WITH NO
SIGNIFICANT WEATHER AND/OR OBSTRUCTIONS TO VISIBILITY.

* - STATION DOES NOT REPORT WEATHER SUCH AS PRECIPITATION OR FOG.

+ - STATION NOT QUALITY CONTROLLED BY THE NATIONAL WEATHER SERVICE.
    USE DATA WITH CAUTION...ESPECIALLY DEWPOINT AND RELATIVE
    HUMIDITY OBSERVATIONS.

INZ001>003-010>013-019-020-200400-
NORTHWEST INDIANA

CITY           SKY/WX    TMP DP  RH WIND       PRES   REMARKS
GARY /AIRPORT/ MOCLDY    53  43  69 S7        29.95F
KNOX *+        MOCLDY    49  41  74 SW7       29.98S
LA PORTE +     MOCLDY    50  44  79 SW8       29.97F
MICHIGAN CITY+ CLOUDY    50  39  66 S9G17     29.96F
MONTICELLO +   CLOUDY    48  43  81 SW8       30.01F
RENSSELAER +   CLOUDY    50  45  81 S9        29.99F
VALPARAISO     MOCLDY    49  41  74 S12       29.97F

$$

LMZ046-743>745-200400-
SOUTHERN LAKE MICHIGAN

STATION/POSITION TIME  TEMP WIND        PRES
                       AIR  DIR/SP/G
                 (UTC) (F)  (DEG/KT/KT) (MB)
MICHIGAN CITY    0300   51  170/ 15/ 19   N/A

$$

INZ004-005-014>016-021>024-200400-
NORTH CENTRAL INDIANA

CITY           SKY/WX    TMP DP  RH WIND       PRES   REMARKS
GOSHEN         MOCLDY    49  40  71 SW12      29.98F
LOGANSPORT +   CLOUDY    46  39  76 SW10      30.02F
PERU/GRISSOM   CLOUDY    47  45  91 SW10      30.01F
ROCHESTER +    CLOUDY    52  43  71 SW8       30.01S
SOUTH BEND     PTCLDY    49  40  71 S10       29.98F
WARSAW +       CLOUDY    50  39  66 SW6       30.00F

$$

INZ006>009-017-018-025>027-200400-
NORTHEAST INDIANA

CITY           SKY/WX    TMP DP  RH WIND       PRES   REMARKS
ANGOLA *+      PTCLDY    46  37  71 SW7       29.98F
AUBURN +       CLOUDY    46  37  71 SW3       30.01S
FORT WAYNE     CLOUDY    47  39  74 S7        30.02F
HUNTINGTON +   CLOUDY    46  39  76 SW3       30.01F

$$

INZ028-029-035-036-043>045-051>053-200400-
WEST CENTRAL INDIANA

CITY           SKY/WX    TMP DP  RH WIND       PRES   REMARKS
GREENCASTLE +  MOCLDY    43  41  93 CALM      30.07R
LAFAYETTE      CLOUDY    46  41  82 SW6       30.03F
TERRE HAUTE    PTCLDY    44  41  89 CALM      30.06F

$$

INZ030>032-037>040-046>048-054>057-064-065-200400-
CENTRAL INDIANA

CITY           SKY/WX    TMP DP  RH WIND       PRES   REMARKS
CP ATTERBURY + PTCLDY    41  37  87 W3        30.08S
FRANKFORT +    MOCLDY    46  41  84 S5        30.05F
INDIANAPOLIS   MOCLDY    45  40  82 SW6       30.06S
-EAGLE CREEK   PTCLDY    46  40  79 CALM      30.05F
KOKOMO *+      CLOUDY    48  39  71 SW10      30.03F
MARION +       MOCLDY    46  39  76 SW6       30.04S
MT COMFORT *+  PTCLDY    46  37  71 SW5       30.06S
SHELBYVILLE    PTCLDY    46  40  79 S7        30.06F
ZIONSVILLE +   MOCLDY    44  39  80 SW5       30.05F

$$

INZ033-034-041-042-049-050-058-059-200400-
EAST CENTRAL INDIANA

CITY           SKY/WX    TMP DP  RH WIND       PRES   REMARKS
MUNCIE         MOCLDY    48  39  71 SW8       30.04F

$$

INZ060-061-067>069-081>083-085>088-200400-
SOUTHWEST INDIANA

CITY           SKY/WX    TMP DP  RH WIND       PRES   REMARKS
EVANSVILLE     MOCLDY    49  45  86 CALM      30.09F
HUNTINGBURG *+ PTCLDY    45  39  81 S3G26     30.09F
WASHINGTON +   MOCLDY    44  44  99 S3        30.07F

$$

INZ062-063-066-070>080-084-089>092-200400-
SOUTH CENTRAL AND SOUTHEAST INDIANA

CITY           SKY/WX    TMP DP  RH WIND       PRES   REMARKS
BLOOMINGTON    MOCLDY    43  41  93 CALM      30.06F

$$



USA.gov is the U.S. government's official web portal to all federal, state and local government web resources and services.